Back to catalog

STARLINK-11588

AliveCommunicationsVLEO
NORAD 63319·PAYLOAD·🇺🇸 United States

Launched Mar 18, 2025 from Cape Canaveral Space Force Station

Loading…

Next Passes (next 24 hours)

TLE

FreshSource: CelesTrak SupGP

Epoch: Sep 14, 2026, 22:48 UTC

1 63319C 25057N   26257.95048611  .00023541  00000+0  18287-3 0  2577
2 63319  43.0004 203.6182 0001609 264.1671 131.5587 15.70823254    18

Track STARLINK-11588 in real time with AllMySat

Download on the App Store